This demonstration page uses our WeatherBlox Daily Observations layout. Learn more.

Left ArrowRight Arrow

41.86663, -103.66717

Hourly Observations for November 8, 2019

Temp ( °F °C ) Dew Point ( °F °C ) Humidity (%) Winds ( mph kmh ) Pressure ( in mb ) Visibility ( mi km ) Precip ( " mm )
12:53 am 00:53 Clear 24 -4.4 22 -5.6 91 91 N 3 6 30.28 1026 10 16 0.00 0.00
1:53 am 01:53 Clear 21 -6.1 20 -6.7 96 96 NNW 7 11 30.27 1025 10 16 0.00 0.00
2:53 am 02:53 Clear 23 -5 20 -6.7 88 88 NW 3 6 30.27 1025 10 16 0.00 0.00
3:53 am 03:53 Clear 21 -6.1 19 -7.2 92 92 W 5 7 30.26 1025 10 16 0.00 0.00
4:53 am 04:53 Clear 20 -6.7 18 -7.8 92 92 WNW 7 11 30.29 1026 10 16 0.00 0.00
5:53 am 05:53 Clear 21 -6.1 19 -7.2 92 92 WNW 9 15 30.29 1026 10 16 0.00 0.00
6:53 am 06:53 Sunny 22 -5.6 19 -7.2 89 89 WNW 8 13 30.30 1026 10 16 0.00 0.00
7:53 am 07:53 Sunny 31 -0.6 28 -2.2 89 89 NW 7 11 30.29 1026 10 16 0.00 0.00
8:53 am 08:53 Sunny 40 4.4 32 0 73 73 NW 6 9 30.24 1024 10 16 0.00 0.00
9:53 am 09:53 Sunny 45 7.2 30 -1.1 56 56 WNW 9 15 30.22 1024 10 16 0.00 0.00
10:53 am 10:53 Sunny 54 12.2 31 -0.6 42 42 WNW 8 13 30.19 1022 10 16 0.00 0.00
11:53 am 11:53 Sunny 58 14.4 29 -1.7 33 33 W 9 15 30.14 1021 10 16 0.00 0.00
12:53 pm 12:53 Sunny 66 18.9 25 -3.9 21 21 WNW 13 20 30.10 1019 10 16 0.00 0.00
1:53 pm 13:53 Sunny 67 19.4 22 -5.6 18 18 WNW 18 30 30.10 1019 10 16 0.00 0.00
2:53 pm 14:53 Sunny 66 18.9 23 -5 19 19 NW 17 28 30.10 1019 10 16 0.00 0.00
3:53 pm 15:53 Sunny 63 17.2 24 -4.4 23 23 NW 12 19 30.13 1020 10 16 0.00 0.00
4:53 pm 16:53 Clear 52 11.1 25 -3.9 35 35 NNW 3 6 30.18 1022 10 16 0.00 0.00
5:53 pm 17:53 Clear 53 11.7 24 -4.4 32 32 WNW 5 7 30.19 1023 10 16 0.00 0.00
6:53 pm 18:53 Clear 47 8.3 25 -3.9 42 42 NW 5 7 30.21 1023 10 16 0.00 0.00
7:53 pm 19:53 Clear 41 5 26 -3.3 55 55 N 8 13 30.22 1023 10 16 0.00 0.00
8:53 pm 20:53 Clear 42 5.6 25 -3.9 51 51 NNW 6 9 30.20 1023 10 16 0.00 0.00
9:53 pm 21:53 Clear 33 0.6 25 -3.9 72 72 Calm 30.22 1023 10 16 0.00 0.00
10:53 pm 22:53 Clear 33 0.6 25 -3.9 72 72 WSW 3 6 30.17 1022 10 16 0.00 0.00
11:53 pm 23:53 Clear 32 0 25 -3.9 75 75 N 6 9 30.16 1022 10 16 0.00 0.00

Powered by AerisWeather